Regional Weather Roundup
Issued by NWS

Home | Current Version | Previous Version | Graphics & Text | Print | Product List | Glossary On
Versions: 1 2 3 4 5 6 7 8 9 10 11 12 13 14 15 16 17 18 19 20 21 22 23 24 25 26 27 28 29 30 31 32 33 34 35 36 37 38 39 40 41 42 43 44 45 46 47 48 49 50
000
ASUS43 KMKX 271911
RWRWI

WISCONSIN REGIONAL WEATHER ROUNDUP
NATIONAL WEATHER SERVICE MILWAUKEE/SULLIVAN WI
200 PM CDT FRI MAY 27 2016

NOTE: "FAIR" INDICATES FEW OR NO CLOUDS BELOW 12,000 FEET WITH NO
SIGNIFICANT WEATHER AND/OR OBSTRUCTIONS TO VISIBILITY.

WIZ001-002-006>008-014>016-023>028-272000-
NORTHWEST WISCONSIN

CITY           SKY/WX    TMP DP  RH WIND       PRES   REMARKS
SUPERIOR ARPT  DRIZZLE   48  48  99 NE6       29.90R
ASHLAND        CLOUDY    55  50  83 N7        29.90S
HAYWARD        CLOUDY    67  55  65 E7        29.86F
SIREN          CLOUDY    66  62  88 E3        29.83F
CUMBERLAND     LGT RAIN  64  55  72 NE8       29.82S
RICE LAKE      PTSUNNY   68  57  66 NE9       29.82F
CHETEK         CLOUDY    68  59  73 E9        29.81F
LADYSMITH      CLOUDY    70  59  66 E8        29.85F
EAU CLAIRE     LGT RAIN  68  63  84 E9        29.78F
MENOMONIE      RAIN      70  68  92 SE6       29.80S
NEW RICHMOND   LGT RAIN  65  63  94 NE5       29.81S
OSCEOLA        LGT RAIN  64  64 100 N6        29.83S
$$

WIZ003>005-009-010-017-018-272000-
NORTH CENTRAL WISCONSIN

CITY           SKY/WX    TMP DP  RH WIND       PRES   REMARKS
MANITOWISH WTR NOT AVBL
ARBOR VITAE    CLOUDY    72  64  74 E3        29.88F
WOODRUFF       CLOUDY    72  64  74 E3        29.88F
RHINELANDER    CLOUDY    71  60  68 E7        29.89F
EAGLE RIVER      N/A     70  58  65 E5        29.89F
LAND O LAKES   CLOUDY    71  59  64 SE5       29.91S
PHILLIPS       LGT RAIN  67  61  80 E5        29.87S
TOMAHAWK       CLOUDY    70  60  70 E5        29.86F
MEDFORD        CLOUDY    72  60  65 E8        29.83F
MERRILL        CLOUDY    72  63  73 E8        29.86F
$$

WIZ029-030-035-036-043>047-272000-
CENTRAL WISCONSIN

CITY           SKY/WX    TMP DP  RH WIND       PRES   REMARKS
WAUSAU         CLOUDY    74  62  66 E8        29.82F
MOSINEE        PTSUNNY   72  63  73 E9G16     29.85F
MARSHFIELD     CLOUDY    77  61  57 E14G24    29.81F
STEVENS POINT  CLOUDY    70  62  75 E12G18    29.84F
WAUPACA        CLOUDY    73  68  84 NE6       29.85F
WAUTOMA        CLOUDY    74  65  73 SE7       29.84F
WISC RAPIDS    PTSUNNY   75  60  59 SE12      29.84F
CAMP DOUGLAS   CLOUDY    74  74 100 SE10      29.81S
$$

WIZ011>013-019>022-031-037>040-048>050-272000-
NORTHEAST WISCONSIN

CITY           SKY/WX    TMP DP  RH WIND       PRES   REMARKS
ANTIGO         RAIN      67  62  83 SE14      29.90R
SHAWANO        CLOUDY    69  65  88 E10       29.87F
OCONTO         CLOUDY   N/A N/A N/A E6        29.88F VSB 1
STURGEON BAY   NOT AVBL
GREEN BAY      CLOUDY    69  66  90 E7        29.87F
MANITOWOC      LGT RAIN  58  55  90 E7        29.90S FOG
APPLETON       CLOUDY    70  68  94 E7        29.86F
CLINTONVILLE   CLOUDY    70  66  88 E12       29.86S
OSHKOSH        CLOUDY    69  65  86 E8        29.86S
$$

WIZ032>034-041-042-053>061-272000-
SOUTHWEST WISCONSIN

CITY           SKY/WX    TMP DP  RH WIND       PRES   REMARKS
LA CROSSE      CLOUDY    76  64  66 SE12      29.77S
SPARTA         CLOUDY    75  63  66 SE12      29.80S
VIROQUA        CLOUDY    71  63  77 S12       29.82R
BOSCOBEL       CLOUDY    76  65  68 VRB5      29.80F
PRAIRIE DU CHI CLOUDY    71  63  75 E7        29.79F
PLATTEVILLE    CLOUDY    73  67  83 S16       29.81F
$$

WIZ056-057-062-063-064-067-068-272000-
SOUTH CENTRAL WISCONSIN

CITY           SKY/WX    TMP DP  RH WIND       PRES   REMARKS
REEDSBURG      CLOUDY    73  65  76 CALM      29.81F
BARABOO/DELLS  CLOUDY    75  63  66 SE3       29.82F
LONE ROCK      CLOUDY    77  65  66 SE6       29.80F
MINERAL POINT  RAIN      73  68  83 SW9       29.81F
MADISON        CLOUDY    78  65  63 S9        29.81F HX  80
MIDDLETON      CLOUDY    79  65  62 SE12      29.81F HX  81
WATERTOWN      PTSUNNY   79  67  67 SE5       29.82F HX  81
MONROE         CLOUDY    77  63  61 S16G25    29.81F
JANESVILLE     PTSUNNY   82  64  54 SE17G23   29.81F HX  84
$$

WIZ051-052-058>065-066-070>072-272000-
SOUTHEAST WISCONSIN

CITY           SKY/WX    TMP DP  RH WIND       PRES   REMARKS
MILWAUKEE      PTSUNNY   75  66  73 SE14      29.85F
WAUKESHA       PTSUNNY   77  64  65 S7        29.86F
MILWAUKEE/TIMM MOSUNNY   79  63  57 SE5       29.86F HX  80
RACINE         PTSUNNY   74  64  71 S14G22    29.88F
BURLINGTON     CLOUDY    82  63  52 SE13G18   29.84F HX  83
KENOSHA        PTSUNNY   78  67  68 SE13      29.86F HX  80
FOND DU LAC    CLOUDY    74  66  76 NE7       29.86F
SHEBOYGAN      RAIN      67  64  90 SE8       29.87F FOG
WEST BEND      CLOUDY    75  68  78 N5        29.85F
JUNEAU         CLOUDY    73  67  82 CALM      29.85F
$$

LSZ147-162-272000-
LAKE SUPERIOR

STATION/POSITION TIME  TEMP    WIND        PRES    WAVE
                       AIR SEA DIR/SP/G            HT/PER
                 (UTC) (F)     (DEG/KT/KT) (MB)    (FT/S)
W MID LAKE BUOY  1850   40 38   10/ 10/ 16 1013.2F   0
DEVILS ISLAND    1800   43      60/  9/  9 1013.9R
PORT WING        1820   42      10/ 12/ 13 1012.9
SAXON HARBOR     1840   46      10/  4/  6 1012.5R
$$

LMZ867-665-643>646-272000-
LAKE MICHIGAN

STATION/POSITION TIME  TEMP    WIND        PRES    WAVE
                       AIR SEA DIR/SP/G            HT/PER
                 (UTC) (F)     (DEG/KT/KT) (MB)    (FT/S)
CHAMBERS ISLAND  1800   63     330/  1/  4 1013.2R
N MID LAKE BUOY  1850   51 47  240/ 10/ 17 1012.9R   0
NORTHPORT PIER   1800   54     150/  8/ 12 1013.5R
SISTER BAY       1805   66     160/  8/ 11   N/A
ALGOMA LAKESHORE 1847          250/  5/  6   N/A
KEWAUNEE LAKESHO 1800   51     180/  3/  4 1012.2S
SHEBOYGAN LAKESH 1900   53     130/  9/ 10 1012.1R
PORT WASHINGTON  1800   61     140/  4/  5 1012.5
S MID LAKE BUOY  1850   56 50  130/  8/  8 1012.3F   1/ 3
KENOSHA   LAKESH 1900   62     170/  9/ 13 1011.2F
$$

TC  - TEMPERATURE IN CELSIUS
VSB - VISIBILITY IN STATUTE MILES
WCI - WIND CHILL INDEX
HX  - HEAT INDEX





USA.gov is the U.S. government's official web portal to all federal, state and local government web resources and services.